Location: Newark
(40.9464°N, 15.0486°E)
Time: 12:44:03
(UTC+00:00)

N. Korean satellite - Visible Passes

Search period start: 06 December 2019 00:00
Search period end: 16 December 2019 00:00
Orbit: 456 x 506 km, 97.2° (Epoch: 05 December)

Date Brightness Start Highest point End Pass type
(mag) Time Alt. Az. Time Alt. Az. Time Alt. Az.
06 Dec 6.6 05:11:27 10° N 05:14:56 51° WNW 05:18:20 10° SSW visible
07 Dec 6.8 04:45:59 10° NNE 04:49:33 69° E 04:53:01 10° S visible
07 Dec 9.5 16:54:59 10° SW 16:57:48 20° W 17:00:36 10° NW visible
08 Dec 8.5 04:20:53 10° NNE 04:24:03 30° E 04:27:09 10° SSE visible
08 Dec 8.1 16:28:44 10° S 16:32:15 41° W 16:35:48 10° NNW visible
09 Dec 9.8 03:56:24 10° ENE 03:58:27 15° E 04:00:29 10° SE visible
09 Dec 7.3 05:28:47 10° N 05:31:56 30° WNW 05:35:00 10° SW visible
09 Dec 6.6 16:03:05 10° SSE 16:06:48 89° E 16:10:32 10° NNW visible
10 Dec 6.4 05:03:04 10° N 05:06:36 67° WNW 05:10:02 10° SSW visible
10 Dec 10.0 17:13:20 10° WSW 17:15:01 13° W 17:16:40 10° WNW visible
11 Dec 7.3 04:37:41 10° NNE 04:41:09 52° E 04:44:32 10° S visible
11 Dec 9.2 16:46:18 10° SSW 16:49:24 25° W 16:52:31 10° NW visible
12 Dec 9.0 04:12:44 10° NE 04:15:37 24° E 04:18:27 10° SSE visible
12 Dec 7.6 16:20:16 10° S 16:23:53 53° W 16:27:30 10° NNW visible
13 Dec 10.0 03:48:47 10° ENE 03:49:58 11° E 03:51:11 10° ESE visible
13 Dec 7.0 05:20:18 10° N 05:23:34 38° WNW 05:26:47 10° SW visible
14 Dec 6.4 04:54:40 10° N 04:58:12 87° W 05:01:38 10° SSW visible
14 Dec 9.8 17:04:16 10° SW 17:06:34 16° W 17:08:51 10° NW visible
15 Dec 7.9 04:29:25 10° NNE 04:32:43 39° E 04:35:58 10° S visible
15 Dec 8.7 16:37:40 10° SSW 16:40:59 31° W 16:44:18 10° NNW visible
